Main page
METAR-TAF:

METAR-TAF

Airports :

Oil platform

Ula, Norway

latitude: 59-06-39N, longitude: 2-50-45E, elevation: 0 m

Current weather observation

The report was made 17 minutes ago, at 21:50 UTC
Wind 9 kt from the West/Northwest
Temperature 16°C
Humidity 82%
Pressure 1000 hPa
Visibility 10 km or more

METAR: ENLA 302150Z AUTO 29009KT 9999NDV OVC009/// 16/13 Q1000 W///S3

Time: 00:07 (22:07 UTC)


TAF: missing

Weather observations and forecasts of more than 4000 airports (METAR and TAF reports).

The available stations are represented by yellow and red dots on the map.

Hover mouse over dot to see the name of the station.

Then click to see weather observations and forecasts.

To change the map : click on the green buttons with a black cross to zoom in, on the green button with a dash to zoom out, or on the green arrows for adjacent maps.


METAR-TAF: